AAL7755 KTUL-KMEM

Flight info

Callsign AAL7755
Flight time 0h 49m
Altitude 31000
Route MAYJI RZC BRBBQ3
Aircraft A321/M-SDE3FGHIRWY/LB1

Departure

Time 2026-05-05 13:21
Airport Tulsa International Airport (KTUL)

Arrival

Time 2026-05-05 14:11
Airport Memphis International Airport (KMEM)
Time Latitude Longitude Altitude Speed Heading
2026-05-05 12:46 36.19122 -95.88761 668 ft 0 kts 153°
2026-05-05 13:10 36.19135 -95.88769 666 ft 4 kts 152°
2026-05-05 13:10 36.19156 -95.88785 666 ft 4 kts 128°
2026-05-05 13:10 36.19163 -95.88807 665 ft 4 kts 62°
2026-05-05 13:11 36.19146 -95.88832 667 ft 4 kts 39°
2026-05-05 13:11 36.19165 -95.88812 665 ft 2 kts 39°
2026-05-05 13:11 36.19166 -95.88811 666 ft 0 kts 39°
2026-05-05 13:13 36.19168 -95.88809 666 ft 1 kts 39°
2026-05-05 13:13 36.19186 -95.88791 668 ft 5 kts 39°
2026-05-05 13:13 36.19216 -95.88760 668 ft 6 kts 39°
2026-05-05 13:13 36.19254 -95.88721 666 ft 8 kts 39°
2026-05-05 13:14 36.19301 -95.88676 667 ft 9 kts 37°
2026-05-05 13:14 36.19357 -95.88625 668 ft 11 kts 37°
2026-05-05 13:14 36.19427 -95.88597 668 ft 11 kts 353°
2026-05-05 13:14 36.19448 -95.88565 668 ft 5 kts 88°
2026-05-05 13:15 36.19447 -95.88515 668 ft 6 kts 90°
2026-05-05 13:15 36.19447 -95.88454 668 ft 8 kts 90°
2026-05-05 13:15 36.19449 -95.88388 668 ft 5 kts 88°
2026-05-05 13:15 36.19449 -95.88385 668 ft 0 kts 88°
2026-05-05 13:19 36.19449 -95.88384 668 ft 1 kts 88°
2026-05-05 13:20 36.19449 -95.88360 668 ft 5 kts 88°
2026-05-05 13:20 36.19450 -95.88302 668 ft 7 kts 89°
2026-05-05 13:20 36.19460 -95.88259 669 ft 3 kts 25°
2026-05-05 13:20 36.19496 -95.88257 669 ft 12 kts
2026-05-05 13:21 36.19852 -95.88235 668 ft 93 kts
2026-05-05 13:21 36.20745 -95.88177 670 ft 161 kts
2026-05-05 13:21 36.21957 -95.88066 1343 ft 173 kts
2026-05-05 13:21 36.23172 -95.87999 2182 ft 179 kts
2026-05-05 13:22 36.24465 -95.87967 2558 ft 196 kts
2026-05-05 13:22 36.25906 -95.87939 2817 ft 218 kts
2026-05-05 13:22 36.27505 -95.87900 3005 ft 243 kts
2026-05-05 13:22 36.29272 -95.87792 3357 ft 263 kts 11°
2026-05-05 13:23 36.30949 -95.86868 4006 ft 269 kts 37°
2026-05-05 13:23 36.32390 -95.85376 4793 ft 271 kts 41°
2026-05-05 13:23 36.33758 -95.83751 5536 ft 275 kts 51°
2026-05-05 13:23 36.34639 -95.81646 6250 ft 279 kts 75°
2026-05-05 13:24 36.34775 -95.79224 6846 ft 287 kts 94°
2026-05-05 13:24 36.34643 -95.76658 7101 ft 310 kts 95°
2026-05-05 13:24 36.34539 -95.74845 7226 ft 326 kts 95°
2026-05-05 13:24 36.34371 -95.71954 7515 ft 344 kts 95°
2026-05-05 13:25 36.34193 -95.68921 8055 ft 352 kts 95°
2026-05-05 13:25 36.34018 -95.65864 8605 ft 359 kts 95°
2026-05-05 13:25 36.33846 -95.62740 9172 ft 366 kts 96°
2026-05-05 13:25 36.33672 -95.59564 9724 ft 372 kts 96°
2026-05-05 13:26 36.33493 -95.56334 10253 ft 377 kts 96°
2026-05-05 13:26 36.33313 -95.53071 10833 ft 381 kts 96°
2026-05-05 13:26 36.33135 -95.49780 11432 ft 384 kts 96°
2026-05-05 13:26 36.32953 -95.46457 12039 ft 388 kts 96°
2026-05-05 13:27 36.32770 -95.43110 12655 ft 391 kts 96°
2026-05-05 13:27 36.32583 -95.39727 13271 ft 395 kts 96°
2026-05-05 13:27 36.32388 -95.36315 13832 ft 399 kts 96°
2026-05-05 13:27 36.32188 -95.32869 14332 ft 403 kts 96°
2026-05-05 13:28 36.31982 -95.29375 14826 ft 408 kts 96°
2026-05-05 13:28 36.31775 -95.25844 15314 ft 413 kts 96°
2026-05-05 13:28 36.31566 -95.22267 15809 ft 418 kts 95°
2026-05-05 13:28 36.31353 -95.18654 16305 ft 423 kts 95°
2026-05-05 13:29 36.31138 -95.14997 16788 ft 428 kts 95°
2026-05-05 13:29 36.30917 -95.11247 17289 ft 433 kts 95°
2026-05-05 13:29 36.30699 -95.07558 17763 ft 437 kts 95°
2026-05-05 13:29 36.30475 -95.03775 18221 ft 442 kts 95°
2026-05-05 13:30 36.30249 -94.99960 18656 ft 446 kts 95°
2026-05-05 13:30 36.30018 -94.96115 19104 ft 449 kts 95°
2026-05-05 13:30 36.29779 -94.92194 19551 ft 452 kts 95°
2026-05-05 13:30 36.29541 -94.88290 19990 ft 455 kts 95°
2026-05-05 13:31 36.29300 -94.84362 20434 ft 459 kts 95°
2026-05-05 13:31 36.29056 -94.80410 20872 ft 462 kts 95°
2026-05-05 13:31 36.28808 -94.76425 21303 ft 465 kts 95°
2026-05-05 13:31 36.28561 -94.72410 21730 ft 469 kts 95°
2026-05-05 13:32 36.28311 -94.68376 22150 ft 472 kts 95°
2026-05-05 13:32 36.28054 -94.64307 22572 ft 475 kts 96°
2026-05-05 13:32 36.27794 -94.60215 22993 ft 478 kts 95°
2026-05-05 13:32 36.27531 -94.56094 23402 ft 481 kts 96°
2026-05-05 13:33 36.27265 -94.51954 23740 ft 484 kts 95°
2026-05-05 13:33 36.26996 -94.47778 24069 ft 487 kts 95°
2026-05-05 13:33 36.26723 -94.43576 24397 ft 491 kts 95°
2026-05-05 13:33 36.26447 -94.39351 24720 ft 494 kts 95°
2026-05-05 13:34 36.26165 -94.35094 25045 ft 497 kts 95°
2026-05-05 13:34 36.25882 -94.30816 25358 ft 500 kts 95°
2026-05-05 13:34 36.25598 -94.26510 25668 ft 503 kts 95°
2026-05-05 13:34 36.25310 -94.22177 25984 ft 507 kts 95°
2026-05-05 13:35 36.25013 -94.17750 26336 ft 510 kts 95°
2026-05-05 13:35 36.24710 -94.13365 26638 ft 512 kts 97°
2026-05-05 13:35 36.24118 -94.09004 26936 ft 515 kts 103°
2026-05-05 13:35 36.23370 -94.04594 27252 ft 518 kts 103°
2026-05-05 13:36 36.22626 -94.00210 27564 ft 521 kts 103°
2026-05-05 13:36 36.21877 -93.95814 27860 ft 524 kts 103°
2026-05-05 13:36 36.21122 -93.91388 28147 ft 527 kts 103°
2026-05-05 13:36 36.20364 -93.86935 28419 ft 530 kts 103°
2026-05-05 13:37 36.19602 -93.82457 28704 ft 533 kts 103°
2026-05-05 13:37 36.18834 -93.77955 28984 ft 535 kts 103°
2026-05-05 13:37 36.18063 -93.73462 29235 ft 538 kts 103°
2026-05-05 13:37 36.17264 -93.68835 29497 ft 540 kts 102°
2026-05-05 13:38 36.16487 -93.64356 29753 ft 543 kts 102°
2026-05-05 13:38 36.15682 -93.59708 29976 ft 545 kts 102°
2026-05-05 13:38 36.14888 -93.55115 30244 ft 545 kts 102°
2026-05-05 13:38 36.14091 -93.50531 30509 ft 546 kts 102°
2026-05-05 13:39 36.13289 -93.45930 30728 ft 548 kts 102°
2026-05-05 13:39 36.12483 -93.41318 30807 ft 548 kts 102°
2026-05-05 13:39 36.10872 -93.32110 30823 ft 547 kts 102°
2026-05-05 13:40 36.09254 -93.22933 30821 ft 546 kts 102°
2026-05-05 13:40 36.07622 -93.13762 30822 ft 546 kts 102°
2026-05-05 13:41 36.05994 -93.04604 30826 ft 545 kts 102°
2026-05-05 13:41 36.04352 -92.95395 30817 ft 545 kts 102°
2026-05-05 13:42 36.02708 -92.86252 30828 ft 545 kts 102°
2026-05-05 13:42 36.01059 -92.77117 30834 ft 545 kts 102°
2026-05-05 13:43 35.99395 -92.67991 30838 ft 544 kts 102°
2026-05-05 13:43 35.97725 -92.58826 30837 ft 543 kts 102°
2026-05-05 13:44 35.96074 -92.49746 30810 ft 536 kts 102°
2026-05-05 13:44 35.95257 -92.45274 30475 ft 531 kts 102°
2026-05-05 13:44 35.94445 -92.40868 30242 ft 523 kts 102°
2026-05-05 13:45 35.93640 -92.36525 30011 ft 518 kts 102°
2026-05-05 13:45 35.92838 -92.32209 29757 ft 513 kts 102°
2026-05-05 13:45 35.92046 -92.27936 29488 ft 510 kts 102°
2026-05-05 13:45 35.91258 -92.23692 29215 ft 506 kts 102°
2026-05-05 13:46 35.90469 -92.19470 28942 ft 503 kts 102°
2026-05-05 13:46 35.89685 -92.15275 28667 ft 500 kts 102°
2026-05-05 13:46 35.88906 -92.11105 28412 ft 497 kts 102°
2026-05-05 13:46 35.88134 -92.06959 28151 ft 495 kts 102°
2026-05-05 13:47 35.87356 -92.02779 27890 ft 492 kts 102°
2026-05-05 13:47 35.86587 -91.98677 27634 ft 490 kts 102°
2026-05-05 13:47 35.85819 -91.94608 27220 ft 485 kts 102°
2026-05-05 13:47 35.85059 -91.90567 26623 ft 483 kts 103°
2026-05-05 13:48 35.84304 -91.86570 26115 ft 478 kts 103°
2026-05-05 13:48 35.83549 -91.82584 25536 ft 476 kts 103°
2026-05-05 13:48 35.82797 -91.78631 24996 ft 472 kts 103°
2026-05-05 13:48 35.82017 -91.74710 24474 ft 469 kts 107°
2026-05-05 13:49 35.80869 -91.70992 24075 ft 461 kts 116°
2026-05-05 13:49 35.79537 -91.67437 23660 ft 455 kts 116°
2026-05-05 13:49 35.78233 -91.63913 23188 ft 450 kts 116°
2026-05-05 13:49 35.76948 -91.60421 22749 ft 445 kts 116°
2026-05-05 13:50 35.75683 -91.56971 22327 ft 439 kts 116°
2026-05-05 13:50 35.74435 -91.53570 21893 ft 434 kts 116°
2026-05-05 13:50 35.73199 -91.50202 21450 ft 430 kts 116°
2026-05-05 13:50 35.72367 -91.47943 21157 ft 427 kts 117°
2026-05-05 13:51 35.71147 -91.44634 20728 ft 423 kts 117°
2026-05-05 13:51 35.69932 -91.41349 20268 ft 420 kts 117°
2026-05-05 13:51 35.68725 -91.38102 19819 ft 416 kts 117°
2026-05-05 13:51 35.67527 -91.34878 19359 ft 413 kts 117°
2026-05-05 13:52 35.66328 -91.31673 18898 ft 411 kts 118°
2026-05-05 13:52 35.65141 -91.28491 18400 ft 410 kts 116°
2026-05-05 13:52 35.64212 -91.23979 17636 ft 413 kts 99°
2026-05-05 13:52 35.63942 -91.21616 17274 ft 412 kts 99°
2026-05-05 13:53 35.63571 -91.18167 17033 ft 401 kts 99°
2026-05-05 13:53 35.63221 -91.14827 16900 ft 387 kts 99°
2026-05-05 13:53 35.62889 -91.11600 16744 ft 375 kts 98°
2026-05-05 13:53 35.62570 -91.08437 16415 ft 370 kts 98°
2026-05-05 13:54 35.62263 -91.05321 16027 ft 366 kts 98°
2026-05-05 13:54 35.61967 -91.02225 15628 ft 363 kts 98°
2026-05-05 13:54 35.61681 -90.99151 15243 ft 361 kts 98°
2026-05-05 13:54 35.61405 -90.96100 14863 ft 358 kts 98°
2026-05-05 13:55 35.61140 -90.93066 14500 ft 356 kts 98°
2026-05-05 13:55 35.60875 -90.90053 14135 ft 353 kts 101°
2026-05-05 13:55 35.60177 -90.87163 13311 ft 356 kts 122°
2026-05-05 13:55 35.58731 -90.84738 12610 ft 348 kts 142°
2026-05-05 13:56 35.57025 -90.82652 12179 ft 344 kts 142°
2026-05-05 13:56 35.55348 -90.80585 11740 ft 340 kts 141°
2026-05-05 13:56 35.53692 -90.78535 11403 ft 333 kts 141°
2026-05-05 13:56 35.52181 -90.76437 11270 ft 327 kts 128°
2026-05-05 13:57 35.51360 -90.73857 11149 ft 326 kts 104°
2026-05-05 13:57 35.51093 -90.71120 10914 ft 321 kts 99°
2026-05-05 13:57 35.50909 -90.68406 10581 ft 318 kts 98°
2026-05-05 13:57 35.50735 -90.65706 10254 ft 316 kts 98°
2026-05-05 13:58 35.50561 -90.62995 9923 ft 314 kts 98°
2026-05-05 13:58 35.50389 -90.60337 9580 ft 311 kts 98°
2026-05-05 13:58 35.50221 -90.57728 9220 ft 310 kts 98°
2026-05-05 13:58 35.50032 -90.55079 8862 ft 306 kts 104°
2026-05-05 13:59 35.48449 -90.50430 8586 ft 295 kts 123°
2026-05-05 13:59 35.47519 -90.48188 8460 ft 295 kts 123°
2026-05-05 14:00 35.45662 -90.43725 8214 ft 293 kts 123°
2026-05-05 14:00 35.44737 -90.41507 8090 ft 292 kts 123°
2026-05-05 14:00 35.43817 -90.39300 7969 ft 291 kts 123°
2026-05-05 14:00 35.42893 -90.37095 7864 ft 290 kts 123°
2026-05-05 14:01 35.41972 -90.34900 7731 ft 289 kts 123°
2026-05-05 14:01 35.41053 -90.32714 7618 ft 288 kts 123°
2026-05-05 14:01 35.40141 -90.30536 7495 ft 286 kts 123°
2026-05-05 14:01 35.39233 -90.28371 7374 ft 285 kts 123°
2026-05-05 14:02 35.38326 -90.26215 7254 ft 284 kts 123°
2026-05-05 14:02 35.37422 -90.24073 7137 ft 283 kts 123°
2026-05-05 14:02 35.36520 -90.21935 7017 ft 282 kts 123°
2026-05-05 14:02 35.35622 -90.19804 6813 ft 281 kts 123°
2026-05-05 14:03 35.34814 -90.17885 6525 ft 279 kts 122°
2026-05-05 14:03 35.33928 -90.15784 6192 ft 277 kts 122°
2026-05-05 14:03 35.33045 -90.13692 5845 ft 276 kts 123°
2026-05-05 14:03 35.32167 -90.11611 5530 ft 274 kts 123°
2026-05-05 14:04 35.31285 -90.09523 5196 ft 272 kts 123°
2026-05-05 14:04 35.30417 -90.07468 4884 ft 269 kts 123°
2026-05-05 14:04 35.29571 -90.05466 4691 ft 262 kts 123°
2026-05-05 14:04 35.28745 -90.03514 4497 ft 254 kts 124°
2026-05-05 14:05 35.27957 -90.01641 4384 ft 240 kts 124°
2026-05-05 14:05 35.27166 -89.99916 4256 ft 225 kts 134°
2026-05-05 14:05 35.26082 -89.98625 4063 ft 212 kts 154°
2026-05-05 14:05 35.24788 -89.97884 3861 ft 201 kts 172°
2026-05-05 14:06 35.23448 -89.97684 3679 ft 187 kts 186°
2026-05-05 14:06 35.22205 -89.97655 3590 ft 173 kts 186°
2026-05-05 14:06 35.21013 -89.97632 3428 ft 171 kts 185°
2026-05-05 14:06 35.19830 -89.97609 3239 ft 169 kts 186°
2026-05-05 14:07 35.18662 -89.97584 3022 ft 167 kts 186°
2026-05-05 14:07 35.17509 -89.97560 2809 ft 165 kts 186°
2026-05-05 14:07 35.16395 -89.97535 2584 ft 156 kts 187°
2026-05-05 14:07 35.15339 -89.97512 2400 ft 148 kts 187°
2026-05-05 14:08 35.14377 -89.97492 2216 ft 143 kts 187°
2026-05-05 14:08 35.13388 -89.97472 2027 ft 142 kts 186°
2026-05-05 14:08 35.12412 -89.97452 1847 ft 139 kts 186°
2026-05-05 14:08 35.11437 -89.97433 1659 ft 141 kts 185°
2026-05-05 14:09 35.10448 -89.97413 1472 ft 146 kts 184°
2026-05-05 14:09 35.09445 -89.97391 1273 ft 143 kts 181°
2026-05-05 14:09 35.08428 -89.97371 1056 ft 145 kts 178°
2026-05-05 14:09 35.07426 -89.97349 856 ft 141 kts 182°
2026-05-05 14:10 35.06435 -89.97328 671 ft 145 kts 180°
2026-05-05 14:10 35.05480 -89.97311 505 ft 143 kts 179°
2026-05-05 14:10 35.04480 -89.97289 336 ft 139 kts 178°
2026-05-05 14:10 35.03655 -89.97270 330 ft 97 kts 179°
2026-05-05 14:11 35.03137 -89.97259 328 ft 55 kts 179°
2026-05-05 14:11 35.02868 -89.97267 327 ft 31 kts 191°
2026-05-05 14:11 35.02724 -89.97342 327 ft 9 kts 219°
2026-05-05 14:11 35.02712 -89.97408 329 ft 8 kts 295°
2026-05-05 14:12 35.02763 -89.97428 326 ft 8 kts 359°
2026-05-05 14:12 35.02823 -89.97429 326 ft 9 kts 359°
2026-05-05 14:12 35.02890 -89.97430 326 ft 10 kts 359°
2026-05-05 14:12 35.02963 -89.97432 326 ft 11 kts 359°
2026-05-05 14:13 35.03036 -89.97433 327 ft 11 kts 359°
2026-05-05 14:13 35.03112 -89.97434 327 ft 11 kts
2026-05-05 14:13 35.03193 -89.97436 326 ft 12 kts 358°
2026-05-05 14:13 35.03280 -89.97439 326 ft 13 kts 359°
2026-05-05 14:14 35.03372 -89.97441 326 ft 13 kts 359°
2026-05-05 14:14 35.03466 -89.97443 326 ft 13 kts 359°
2026-05-05 14:14 35.03560 -89.97445 326 ft 14 kts 359°
2026-05-05 14:14 35.03658 -89.97447 327 ft 14 kts 359°
2026-05-05 14:15 35.03759 -89.97448 326 ft 14 kts 359°
2026-05-05 14:15 35.03802 -89.97506 326 ft 12 kts 267°
2026-05-05 14:15 35.03800 -89.97633 325 ft 14 kts 269°
2026-05-05 14:15 35.03818 -89.97724 325 ft 9 kts 316°
2026-05-05 14:16 35.03890 -89.97735 326 ft 13 kts 359°
2026-05-05 14:16 35.03987 -89.97737 328 ft 13 kts 359°
2026-05-05 14:16 35.04075 -89.97740 327 ft 12 kts 359°
2026-05-05 14:16 35.04152 -89.97741 327 ft 11 kts 359°
2026-05-05 14:17 35.04192 -89.97800 328 ft 11 kts 275°
2026-05-05 14:17 35.04197 -89.97890 327 ft 10 kts 282°
2026-05-05 14:17 35.04200 -89.97964 330 ft 8 kts 238°
2026-05-05 14:17 35.04176 -89.97993 327 ft 1 kts 223°
2026-05-05 14:18 35.04174 -89.97994 328 ft 0 kts 223°